Bradford, PA

10:54 PM EDT on September 20, 2017 (GMT -0400)
Bradford Regional

Weather History for KBFD - February, 2014

Change the Weather History Date:

Saturday, February 22, 2014

  Actual Average Record
Temperature  
Mean Temperature 37 °F 25 °F  
Max Temperature 43 °F 34 °F 58 °F (2017)
Min Temperature 30 °F 16 °F -12 °F (1963)
Degree Days  
Heating Degree Days 28 35  
Month to date heating degree days 970 800  
Since 1 July heating degree days 5348 5211  
Cooling Degree Days 0 0  
Month to date cooling degree days 0 0  
Year to date cooling degree days 0 0  
Moisture  
Dew Point 20 °F    
Average Humidity 60    
Maximum Humidity 89    
Minimum Humidity 30    
Precipitation  
Precipitation 0.03 in 0.08 in 1.02 in (1974)
Month to date precipitation 1.51 1.81  
Year to date precipitation 3.45 5.10  
Sea Level Pressure  
Sea Level Pressure 29.93 in    
Wind  
Wind Speed 11 mph (WSW)    
Max Wind Speed 25 mph    
Max Gust Speed 36 mph    
Visibility 7 miles    
Events Snow    
T = Trace of Precipitation, MM = Missing Value Source: NWS Daily Summary

Daily Weather History Graph

Daily Weather History Graph

Search for Another Location

Airport or City:

Trip Planner

Search our weather history database for the weather conditions in past years. The results will help you decide how hot, cold, wet, or windy it might be!

Date:

Astronomy

Feb. 22, 2014 Rise Set
Actual Time 7:00 AM EST 5:56 PM EST
Civil Twilight 6:32 AM EST 6:24 PM EST
Nautical Twilight 5:59 AM EST 6:57 PM EST
Astronomical Twilight 5:27 AM EST 7:29 PM EST
Moon 12:55 AM EST (2/22) 11:03 AM EST (2/22)
Length of Visible Light 11h 52m
Length of Day
10h 56m
Waning Gibbous, 50% of the Moon is Illuminated
Feb 22
Waning Gibbous
Feb 22
Last Quarter
Mar 1
New
Mar 8
First Quarter
Mar 16
Full

Hourly Weather History & Observations

Time (EST) Temp. Windchill Dew Point Humidity Pressure Visibility Wind Dir Wind Speed Gust Speed Precip Events Conditions
12:53 AM 32.0 °F 23.0 °F 10.9 °F 42% 29.90 in 10.0 mi WSW 11.5 mph 21.9 mph N/A   Clear
1:53 AM 32.0 °F 24.2 °F 10.9 °F 42% 29.91 in 10.0 mi SW 9.2 mph - N/A   Clear
2:53 AM 30.9 °F 25.2 °F 12.0 °F 46% 29.91 in 10.0 mi Variable 5.8 mph - N/A   Clear
3:53 AM 30.9 °F 23.5 °F 12.0 °F 46% 29.89 in 10.0 mi SW 8.1 mph - N/A   Clear
4:53 AM 30.9 °F 24.3 °F 12.0 °F 46% 29.88 in 10.0 mi SW 6.9 mph - N/A   Clear
5:53 AM 30.9 °F 24.3 °F 10.9 °F 43% 29.85 in 10.0 mi Variable 6.9 mph - N/A   Scattered Clouds
6:53 AM 34.0 °F 24.6 °F 12.0 °F 40% 29.85 in 10.0 mi SW 13.8 mph 24.2 mph N/A   Overcast
7:53 AM 34.0 °F 26.0 °F 12.9 °F 42% 29.86 in 10.0 mi SW 10.4 mph 21.9 mph N/A   Overcast
8:53 AM 36.0 °F 26.0 °F 15.1 °F 43% 29.88 in 10.0 mi SW 17.3 mph 24.2 mph N/A   Scattered Clouds
9:53 AM 37.9 °F 32.1 °F 17.1 °F 43% 29.89 in 10.0 mi WSW 8.1 mph 17.3 mph N/A   Partly Cloudy
10:53 AM 39.0 °F 30.3 °F 19.0 °F 45% 29.90 in 10.0 mi West 16.1 mph 27.6 mph N/A   Overcast
11:53 AM 37.9 °F 28.5 °F 19.0 °F 47% 29.93 in 10.0 mi West 17.3 mph 33.4 mph N/A   Mostly Cloudy
12:53 PM 41.0 °F 32.8 °F 18.0 °F 40% 29.92 in 10.0 mi WSW 16.1 mph 28.8 mph N/A   Scattered Clouds
1:53 PM 41.0 °F 34.3 °F 12.9 °F 32% 29.91 in 10.0 mi WSW 11.5 mph 31.1 mph N/A   Clear
2:53 PM 42.1 °F 34.5 °F 14.0 °F 32% 29.92 in 10.0 mi WSW 15.0 mph 28.8 mph N/A   Partly Cloudy
3:53 PM 42.1 °F 35.2 °F 14.0 °F 32% 29.93 in 10.0 mi West 12.7 mph 25.3 mph N/A   Mostly Cloudy
4:53 PM 39.9 °F 31.8 °F 16.0 °F 38% 29.95 in 10.0 mi West 15.0 mph 24.2 mph N/A   Scattered Clouds
5:53 PM 39.9 °F 33.9 °F 16.0 °F 38% 29.95 in 10.0 mi WSW 9.2 mph 24.2 mph N/A   Overcast
6:53 PM 39.0 °F 32.3 °F 18.0 °F 43% 29.97 in 10.0 mi West 10.4 mph - N/A   Overcast
7:53 PM 37.9 °F 29.6 °F 19.0 °F 47% 29.97 in 10.0 mi West 13.8 mph 20.7 mph N/A   Overcast
8:53 PM 36.0 °F 30.3 °F 19.9 °F 52% 29.98 in 10.0 mi West 6.9 mph - N/A   Overcast
9:53 PM 36.0 °F 27.1 °F 23.0 °F 59% 29.99 in 8.0 mi West 13.8 mph 23.0 mph 0.00 in Snow Light Snow
10:18 PM 34.0 °F 28.0 °F 27.0 °F 75% 29.96 in 3.0 mi WSW 6.9 mph - 0.00 in Snow Light Snow
10:24 PM 34.0 °F 29.8 °F 27.0 °F 75% 29.96 in 1.8 mi Variable 4.6 mph 18.4 mph 0.00 in Snow Light Snow
10:35 PM 33.1 °F 26.1 °F 28.9 °F 85% 29.96 in 0.8 mi WSW 8.1 mph - 0.00 in Snow Light Snow
10:49 PM 33.8 °F 27.0 °F 28.4 °F 81% 29.96 in 1.0 mi West 8.1 mph - 0.01 in Snow Light Snow
10:53 PM 33.1 °F 26.1 °F 30.0 °F 89% 30.00 in 1.0 mi West 8.1 mph - 0.01 in Snow Light Snow
11:02 PM 33.1 °F 26.9 °F 30.0 °F 89% 29.95 in 0.8 mi Variable 6.9 mph - 0.01 in Snow Light Snow
11:11 PM 33.1 °F 26.9 °F 30.0 °F 89% 29.95 in 1.2 mi West 6.9 mph - 0.01 in Snow Light Snow
11:27 PM 33.1 °F 24.9 °F 30.0 °F 89% 29.94 in 1.5 mi West 10.4 mph - 0.02 in Snow Light Snow
11:38 PM 33.1 °F 26.1 °F 30.0 °F 89% 29.95 in 1.8 mi West 8.1 mph - 0.02 in Snow Light Snow
11:49 PM 33.8 °F 27.7 °F 28.4 °F 81% 29.95 in 1.5 mi WSW 6.9 mph 16.1 mph 0.02 in Snow Light Snow
11:53 PM 33.1 °F 26.1 °F 28.9 °F 85% 29.99 in 1.5 mi West 8.1 mph - 0.02 in Snow Light Snow